sat.trackr.live / text

‹ back to catalog

TANAGER-1

NORAD 60507 · 2024-149AR

PAYLOAD ACTIVE UNKNOWN

§ Identity

Operator
Country
US
Launch date
2024-08-16
Launch site
AFWTR
Launch vehicle
Mass (kg)
RCS (m²)

Purposes: earth_obs

External: N2YO · Heavens-Above · Gunter

§ Orbital elements

Epoch: 2026-05-25T05:30:45.933120Z

Period
93.22 min
Inclination
97.3019°
Eccentricity
0.0004591
Mean motion
15.44667420 rev/d
Perigee alt
429.2 km
Apogee alt
435.5 km
Semi-major
6,810.5 km
B*
2.1805e-4
RAAN
239.4360°
Arg perigee
35.1338°
Mean anomaly
325.0213°
Rev number
9,949

§ Raw data

TANAGER-11 60507U 24149AR  26145.22969830  .00010081  00000+0  21805-3 0  99932 60507  97.3019 239.4360 0004591  35.1338 325.0213 15.44667420 99494

JSON: /api/v1/satellites/60507 · /tle

For live sub-satellite position, see the globe view (requires WebGL).

§ Visibility from observer

Set your observer location to see the next 7 days of passes ≥ 10°. The values pass through the URL so the page stays shareable.

No JS? Fill the form by hand. The geolocation button needs JavaScript.

§ Radio — SatNOGS DB

ModeDescriptionDownlinkUplink
FM Mode X - Transmitter 8.375 GHz

1 transmitter · refreshed weekly from db.satnogs.org